RYR3AC EHAM-EIDW

Flight info

Callsign RYR3AC
Flight time 1h 16m
Altitude 38000
Route BERGI L60 PENIL UL28 LELDO M145 BAGSO BAGSO4L
Aircraft B738/M-SDE3FGILRWY/SB1

Departure

Time 2026-05-06 11:10
Airport Amsterdam Airport Schiphol (EHAM)

Arrival

Time 2026-05-06 12:27
Airport Dublin Airport (EIDW)
Time Latitude Longitude Altitude Speed Heading
2026-05-06 10:37 52.30986 4.75354 -2 ft 0 kts 148°
2026-05-06 10:59 52.30994 4.75346 -2 ft 4 kts 150°
2026-05-06 10:59 52.31016 4.75325 -2 ft 4 kts 126°
2026-05-06 10:59 52.31019 4.75299 -2 ft 4 kts 68°
2026-05-06 11:00 52.31015 4.75282 -2 ft 1 kts 70°
2026-05-06 11:02 52.31017 4.75287 -2 ft 2 kts 66°
2026-05-06 11:03 52.31032 4.75321 -2 ft 6 kts 53°
2026-05-06 11:03 52.31063 4.75387 -2 ft 9 kts 53°
2026-05-06 11:03 52.31117 4.75455 -2 ft 11 kts 25°
2026-05-06 11:03 52.31200 4.75463 -2 ft 13 kts 357°
2026-05-06 11:04 52.31302 4.75454 -2 ft 15 kts 356°
2026-05-06 11:04 52.31412 4.75444 -2 ft 17 kts 357°
2026-05-06 11:04 52.31499 4.75412 -2 ft 12 kts 311°
2026-05-06 11:04 52.31506 4.75280 -2 ft 12 kts 268°
2026-05-06 11:05 52.31501 4.75142 -2 ft 12 kts 266°
2026-05-06 11:05 52.31496 4.75004 -2 ft 12 kts 267°
2026-05-06 11:05 52.31491 4.74860 -2 ft 13 kts 267°
2026-05-06 11:05 52.31487 4.74710 -2 ft 14 kts 267°
2026-05-06 11:06 52.31483 4.74551 -2 ft 14 kts 266°
2026-05-06 11:06 52.31477 4.74392 -2 ft 14 kts 266°
2026-05-06 11:06 52.31463 4.74225 -2 ft 15 kts 247°
2026-05-06 11:06 52.31378 4.74138 -2 ft 15 kts 185°
2026-05-06 11:07 52.31266 4.74126 -2 ft 17 kts 182°
2026-05-06 11:07 52.31149 4.74115 -2 ft 17 kts 183°
2026-05-06 11:07 52.31036 4.74105 -2 ft 16 kts 183°
2026-05-06 11:07 52.30923 4.74095 -2 ft 17 kts 183°
2026-05-06 11:08 52.30804 4.74083 -2 ft 18 kts 183°
2026-05-06 11:08 52.30678 4.74073 -2 ft 18 kts 183°
2026-05-06 11:08 52.30555 4.74062 -2 ft 17 kts 183°
2026-05-06 11:08 52.30435 4.74035 -2 ft 18 kts 209°
2026-05-06 11:09 52.30417 4.73856 -3 ft 18 kts 277°
2026-05-06 11:09 52.30487 4.73764 -3 ft 14 kts 356°
2026-05-06 11:09 52.30587 4.73774 -4 ft 17 kts
2026-05-06 11:09 52.30813 4.73796 -2 ft 64 kts
2026-05-06 11:10 52.31489 4.73858 -4 ft 128 kts
2026-05-06 11:10 52.32533 4.73937 228 ft 161 kts
2026-05-06 11:10 52.33666 4.73976 992 ft 167 kts 358°
2026-05-06 11:10 52.34795 4.73577 1906 ft 165 kts 347°
2026-05-06 11:11 52.35883 4.72997 2778 ft 162 kts 344°
2026-05-06 11:11 52.37010 4.72223 3161 ft 193 kts 335°
2026-05-06 11:11 52.38251 4.71061 3420 ft 218 kts 332°
2026-05-06 11:11 52.39615 4.69727 3679 ft 240 kts 331°
2026-05-06 11:12 52.41115 4.68265 4070 ft 258 kts 331°
2026-05-06 11:12 52.42650 4.66771 4973 ft 259 kts 330°
2026-05-06 11:12 52.44226 4.65249 5688 ft 267 kts 330°
2026-05-06 11:12 52.45851 4.63687 6442 ft 273 kts 330°
2026-05-06 11:13 52.47501 4.62106 7229 ft 276 kts 329°
2026-05-06 11:13 52.49160 4.60521 8068 ft 277 kts 329°
2026-05-06 11:13 52.50838 4.58920 8871 ft 281 kts 329°
2026-05-06 11:13 52.52535 4.57303 9670 ft 283 kts 329°
2026-05-06 11:14 52.54252 4.55667 10325 ft 291 kts 329°
2026-05-06 11:14 52.56072 4.53930 10532 ft 314 kts 329°
2026-05-06 11:14 52.58026 4.52065 10851 ft 332 kts 329°
2026-05-06 11:14 52.60046 4.50136 11466 ft 339 kts 328°
2026-05-06 11:15 52.62084 4.48191 12299 ft 339 kts 328°
2026-05-06 11:15 52.64136 4.46230 13039 ft 344 kts 328°
2026-05-06 11:15 52.66216 4.44239 13799 ft 348 kts 328°
2026-05-06 11:15 52.68319 4.42223 14505 ft 352 kts 328°
2026-05-06 11:16 52.70420 4.40207 15160 ft 356 kts 328°
2026-05-06 11:16 52.72565 4.38107 15849 ft 360 kts 323°
2026-05-06 11:16 52.74414 4.35334 16562 ft 360 kts 307°
2026-05-06 11:16 52.75765 4.31859 17271 ft 361 kts 292°
2026-05-06 11:17 52.76644 4.27963 17972 ft 364 kts 287°
2026-05-06 11:17 52.77439 4.23960 18580 ft 369 kts 286°
2026-05-06 11:17 52.78220 4.19916 19246 ft 370 kts 286°
2026-05-06 11:17 52.79006 4.15851 19859 ft 374 kts 286°
2026-05-06 11:18 52.79810 4.11732 20456 ft 377 kts 286°
2026-05-06 11:18 52.80624 4.07600 21062 ft 380 kts 286°
2026-05-06 11:18 52.81451 4.03430 21658 ft 384 kts 286°
2026-05-06 11:18 52.82289 3.99218 22241 ft 387 kts 286°
2026-05-06 11:19 52.83132 3.94979 22819 ft 390 kts 286°
2026-05-06 11:19 52.83982 3.90706 23404 ft 393 kts 286°
2026-05-06 11:19 52.84838 3.86394 23909 ft 395 kts 286°
2026-05-06 11:19 52.85695 3.82068 24383 ft 397 kts 285°
2026-05-06 11:20 52.86557 3.77709 24873 ft 399 kts 285°
2026-05-06 11:20 52.87422 3.73324 25348 ft 401 kts 285°
2026-05-06 11:20 52.88288 3.68920 25809 ft 404 kts 285°
2026-05-06 11:20 52.89159 3.64485 26245 ft 406 kts 285°
2026-05-06 11:21 52.90022 3.60078 26663 ft 409 kts 285°
2026-05-06 11:21 52.90900 3.55582 27101 ft 411 kts 285°
2026-05-06 11:21 52.91780 3.51070 27524 ft 413 kts 285°
2026-05-06 11:21 52.92665 3.46516 27924 ft 416 kts 285°
2026-05-06 11:22 52.93553 3.41939 28313 ft 418 kts 285°
2026-05-06 11:22 52.94445 3.37331 28706 ft 421 kts 285°
2026-05-06 11:22 52.95340 3.32695 29094 ft 423 kts 285°
2026-05-06 11:22 52.96238 3.28042 29438 ft 426 kts 285°
2026-05-06 11:23 52.97140 3.23346 29791 ft 428 kts 285°
2026-05-06 11:23 52.97968 3.18591 30114 ft 429 kts 280°
2026-05-06 11:23 52.98564 3.13734 30396 ft 430 kts 278°
2026-05-06 11:23 52.99089 3.08839 30705 ft 431 kts 277°
2026-05-06 11:24 52.99593 3.03936 31099 ft 430 kts 277°
2026-05-06 11:24 53.00096 2.99050 31492 ft 429 kts 277°
2026-05-06 11:24 53.00608 2.94161 31845 ft 430 kts 278°
2026-05-06 11:24 53.01127 2.89272 32178 ft 430 kts 278°
2026-05-06 11:25 53.01653 2.84378 32535 ft 430 kts 278°
2026-05-06 11:25 53.02181 2.79489 32902 ft 430 kts 278°
2026-05-06 11:25 53.02710 2.74605 33239 ft 430 kts 278°
2026-05-06 11:25 53.03238 2.69715 33552 ft 430 kts 278°
2026-05-06 11:26 53.03757 2.64890 33891 ft 430 kts 278°
2026-05-06 11:26 53.04282 2.59988 34188 ft 430 kts 278°
2026-05-06 11:26 53.04804 2.55095 34445 ft 431 kts 278°
2026-05-06 11:26 53.05325 2.50188 34709 ft 431 kts 278°
2026-05-06 11:27 53.05843 2.45288 34972 ft 431 kts 278°
2026-05-06 11:27 53.06359 2.40389 35240 ft 431 kts 278°
2026-05-06 11:27 53.06874 2.35483 35494 ft 431 kts 278°
2026-05-06 11:27 53.07387 2.30571 35754 ft 431 kts 278°
2026-05-06 11:28 53.07897 2.25667 36007 ft 431 kts 278°
2026-05-06 11:28 53.08405 2.20760 36269 ft 430 kts 278°
2026-05-06 11:28 53.08911 2.15854 36511 ft 430 kts 278°
2026-05-06 11:28 53.09414 2.10950 36760 ft 430 kts 278°
2026-05-06 11:29 53.09917 2.06034 37013 ft 430 kts 278°
2026-05-06 11:29 53.10415 2.01140 37247 ft 430 kts 278°
2026-05-06 11:29 53.10912 1.96241 37491 ft 429 kts 278°
2026-05-06 11:29 53.11406 1.91340 37724 ft 429 kts 278°
2026-05-06 11:30 53.11898 1.86446 37947 ft 429 kts 278°
2026-05-06 11:30 53.12882 1.76584 37988 ft 432 kts 278°
2026-05-06 11:31 53.13856 1.66755 37972 ft 428 kts 278°
2026-05-06 11:31 53.14812 1.57017 37977 ft 424 kts 278°
2026-05-06 11:32 53.15752 1.47349 37980 ft 422 kts 277°
2026-05-06 11:32 53.16681 1.37715 37988 ft 421 kts 277°
2026-05-06 11:33 53.17602 1.28060 37995 ft 429 kts 277°
2026-05-06 11:33 53.18537 1.18191 37993 ft 433 kts 277°
2026-05-06 11:34 53.19470 1.08251 37985 ft 434 kts 277°
2026-05-06 11:34 53.20396 0.98287 37988 ft 435 kts 277°
2026-05-06 11:35 53.21315 0.88311 37985 ft 434 kts 277°
2026-05-06 11:35 53.22223 0.78366 37992 ft 433 kts 277°
2026-05-06 11:36 53.23118 0.68453 37992 ft 431 kts 277°
2026-05-06 11:36 53.24001 0.58589 38002 ft 429 kts 277°
2026-05-06 11:37 53.24872 0.48761 37990 ft 427 kts 277°
2026-05-06 11:37 53.25731 0.38970 38006 ft 425 kts 277°
2026-05-06 11:38 53.26580 0.29197 38009 ft 424 kts 277°
2026-05-06 11:38 53.27278 0.21097 38027 ft 424 kts 277°
2026-05-06 11:39 53.28249 0.09736 38023 ft 424 kts 277°
2026-05-06 11:39 53.28945 0.01557 38023 ft 425 kts 277°
2026-05-06 11:40 53.29940 -0.08187 38064 ft 427 kts 278°
2026-05-06 11:40 53.30982 -0.17967 38034 ft 427 kts 278°
2026-05-06 11:41 53.31993 -0.27763 38036 ft 427 kts 278°
2026-05-06 11:41 53.32984 -0.37546 38040 ft 426 kts 278°
2026-05-06 11:42 53.33962 -0.47254 38042 ft 426 kts 278°
2026-05-06 11:42 53.34946 -0.57024 38037 ft 425 kts 278°
2026-05-06 11:43 53.35918 -0.66780 38040 ft 425 kts 278°
2026-05-06 11:43 53.36866 -0.76531 38047 ft 424 kts 278°
2026-05-06 11:44 53.38273 -0.91161 38050 ft 424 kts 278°
2026-05-06 11:44 53.39231 -1.00922 38034 ft 425 kts 278°
2026-05-06 11:45 53.40186 -1.10699 38044 ft 425 kts 278°
2026-05-06 11:45 53.41114 -1.20471 38043 ft 425 kts 278°
2026-05-06 11:46 53.42013 -1.30265 38039 ft 425 kts 277°
2026-05-06 11:46 53.42928 -1.40053 38043 ft 425 kts 278°
2026-05-06 11:47 53.43847 -1.49861 38043 ft 425 kts 277°
2026-05-06 11:47 53.44748 -1.59663 38041 ft 425 kts 277°
2026-05-06 11:48 53.45637 -1.69468 38044 ft 425 kts 277°
2026-05-06 11:48 53.46520 -1.79278 38044 ft 425 kts 277°
2026-05-06 11:49 53.47386 -1.89092 38052 ft 425 kts 277°
2026-05-06 11:49 53.48235 -1.98912 38046 ft 425 kts 277°
2026-05-06 11:50 53.49079 -2.08729 38052 ft 425 kts 277°
2026-05-06 11:50 53.49915 -2.18542 38044 ft 425 kts 277°
2026-05-06 11:51 53.50748 -2.28367 38050 ft 424 kts 277°
2026-05-06 11:51 53.51574 -2.38184 38046 ft 424 kts 277°
2026-05-06 11:52 53.51979 -2.43034 37799 ft 428 kts 277°
2026-05-06 11:52 53.52391 -2.47992 37444 ft 426 kts 277°
2026-05-06 11:52 53.52797 -2.52896 36984 ft 422 kts 277°
2026-05-06 11:52 53.53196 -2.57742 36619 ft 416 kts 277°
2026-05-06 11:53 53.53589 -2.62538 36215 ft 412 kts 277°
2026-05-06 11:53 53.53975 -2.67279 35834 ft 408 kts 277°
2026-05-06 11:53 53.54356 -2.71990 35448 ft 404 kts 277°
2026-05-06 11:53 53.54732 -2.76649 35066 ft 401 kts 277°
2026-05-06 11:54 53.55103 -2.81272 34682 ft 397 kts 277°
2026-05-06 11:54 53.55468 -2.85857 34295 ft 394 kts 277°
2026-05-06 11:54 53.55829 -2.90403 33896 ft 391 kts 277°
2026-05-06 11:54 53.56186 -2.94923 33462 ft 388 kts 276°
2026-05-06 11:55 53.56538 -2.99396 33094 ft 383 kts 276°
2026-05-06 11:55 53.56884 -3.03821 32701 ft 380 kts 276°
2026-05-06 11:55 53.57225 -3.08200 32334 ft 376 kts 276°
2026-05-06 11:55 53.57561 -3.12531 31957 ft 372 kts 276°
2026-05-06 11:56 53.57892 -3.16833 31606 ft 369 kts 276°
2026-05-06 11:56 53.58219 -3.21094 31234 ft 365 kts 276°
2026-05-06 11:56 53.58542 -3.25323 30883 ft 362 kts 276°
2026-05-06 11:56 53.58860 -3.29506 30531 ft 359 kts 276°
2026-05-06 11:57 53.59175 -3.33664 30183 ft 357 kts 276°
2026-05-06 11:57 53.59485 -3.37785 29792 ft 354 kts 276°
2026-05-06 11:57 53.59791 -3.41867 29429 ft 349 kts 276°
2026-05-06 11:57 53.60093 -3.45909 29071 ft 345 kts 276°
2026-05-06 11:58 53.60388 -3.49892 28711 ft 341 kts 276°
2026-05-06 11:58 53.60681 -3.53830 28353 ft 338 kts 276°
2026-05-06 11:58 53.60969 -3.57742 27984 ft 335 kts 276°
2026-05-06 11:58 53.61251 -3.61601 27655 ft 331 kts 276°
2026-05-06 11:59 53.61567 -3.65428 27300 ft 328 kts 281°
2026-05-06 11:59 53.62195 -3.69101 26978 ft 326 kts 290°
2026-05-06 11:59 53.63038 -3.72629 26644 ft 323 kts 291°
2026-05-06 11:59 53.63893 -3.76116 26303 ft 321 kts 291°
2026-05-06 12:00 53.64741 -3.79586 25971 ft 319 kts 291°
2026-05-06 12:00 53.65563 -3.82985 25649 ft 317 kts 291°
2026-05-06 12:00 53.66387 -3.86422 25317 ft 315 kts 291°
2026-05-06 12:00 53.67199 -3.89831 24993 ft 313 kts 291°
2026-05-06 12:01 53.68007 -3.93231 24667 ft 311 kts 291°
2026-05-06 12:01 53.68823 -3.96653 24336 ft 310 kts 291°
2026-05-06 12:01 53.69639 -4.00013 24016 ft 309 kts 291°
2026-05-06 12:01 53.70444 -4.03319 23689 ft 308 kts 291°
2026-05-06 12:02 53.71242 -4.06662 23312 ft 306 kts 288°
2026-05-06 12:02 53.71766 -4.10133 22947 ft 304 kts 277°
2026-05-06 12:02 53.71951 -4.13675 22621 ft 302 kts 274°
2026-05-06 12:02 53.72069 -4.17193 22294 ft 300 kts 273°
2026-05-06 12:03 53.72180 -4.20710 21992 ft 300 kts 273°
2026-05-06 12:03 53.72295 -4.24227 21669 ft 302 kts 273°
2026-05-06 12:03 53.72417 -4.27811 21354 ft 310 kts 274°
2026-05-06 12:03 53.72545 -4.31485 21020 ft 314 kts 274°
2026-05-06 12:04 53.72678 -4.35210 20673 ft 312 kts 274°
2026-05-06 12:04 53.72805 -4.38809 20346 ft 310 kts 274°
2026-05-06 12:04 53.72931 -4.42426 20029 ft 308 kts 274°
2026-05-06 12:04 53.73056 -4.46019 19703 ft 306 kts 274°
2026-05-06 12:05 53.73180 -4.49598 19374 ft 304 kts 274°
2026-05-06 12:05 53.73303 -4.53153 19053 ft 303 kts 274°
2026-05-06 12:05 53.73424 -4.56691 18735 ft 301 kts 274°
2026-05-06 12:05 53.73544 -4.60212 18423 ft 299 kts 274°
2026-05-06 12:06 53.73662 -4.63718 18067 ft 298 kts 274°
2026-05-06 12:06 53.73778 -4.67209 17725 ft 296 kts 274°
2026-05-06 12:06 53.73893 -4.70663 17414 ft 293 kts 274°
2026-05-06 12:06 53.74006 -4.74083 17094 ft 291 kts 274°
2026-05-06 12:07 53.74117 -4.77488 16788 ft 289 kts 274°
2026-05-06 12:07 53.74225 -4.80860 16474 ft 287 kts 274°
2026-05-06 12:07 53.74333 -4.84216 16168 ft 285 kts 274°
2026-05-06 12:07 53.74443 -4.87545 15859 ft 283 kts 274°
2026-05-06 12:08 53.74554 -4.90856 15558 ft 282 kts 274°
2026-05-06 12:08 53.74663 -4.94146 15252 ft 280 kts 274°
2026-05-06 12:08 53.74770 -4.97421 14952 ft 278 kts 274°
2026-05-06 12:08 53.74877 -5.00680 14655 ft 277 kts 274°
2026-05-06 12:09 53.74982 -5.03924 14361 ft 276 kts 274°
2026-05-06 12:09 53.75085 -5.07157 14066 ft 275 kts 274°
2026-05-06 12:09 53.75186 -5.10376 13762 ft 274 kts 274°
2026-05-06 12:09 53.75244 -5.13587 13432 ft 273 kts 266°
2026-05-06 12:10 53.74818 -5.16704 13123 ft 272 kts 253°
2026-05-06 12:10 53.74204 -5.19720 12823 ft 271 kts 252°
2026-05-06 12:10 53.73582 -5.22708 12532 ft 269 kts 252°
2026-05-06 12:10 53.72964 -5.25686 12242 ft 267 kts 252°
2026-05-06 12:11 53.72356 -5.28644 11951 ft 266 kts 252°
2026-05-06 12:11 53.71753 -5.31588 11662 ft 265 kts 252°
2026-05-06 12:11 53.71155 -5.34519 11371 ft 263 kts 252°
2026-05-06 12:11 53.70569 -5.37399 11088 ft 262 kts 252°
2026-05-06 12:12 53.69978 -5.40308 10801 ft 262 kts 252°
2026-05-06 12:12 53.69386 -5.43207 10515 ft 261 kts 252°
2026-05-06 12:12 53.68795 -5.46102 10228 ft 260 kts 252°
2026-05-06 12:12 53.68215 -5.48951 10109 ft 253 kts 254°
2026-05-06 12:13 53.68007 -5.51844 9889 ft 249 kts 274°
2026-05-06 12:13 53.68111 -5.54780 9690 ft 252 kts 273°
2026-05-06 12:13 53.68200 -5.57753 9479 ft 256 kts 273°
2026-05-06 12:13 53.68282 -5.60766 9256 ft 259 kts 272°
2026-05-06 12:14 53.68349 -5.63825 9035 ft 262 kts 268°
2026-05-06 12:14 53.67870 -5.66789 8800 ft 266 kts 242°
2026-05-06 12:14 53.66765 -5.69289 8586 ft 265 kts 230°
2026-05-06 12:14 53.65491 -5.71488 8323 ft 262 kts 216°
2026-05-06 12:15 53.63819 -5.72624 8125 ft 260 kts 188°
2026-05-06 12:15 53.62056 -5.72391 8055 ft 252 kts 163°
2026-05-06 12:15 53.60537 -5.71026 8042 ft 248 kts 141°
2026-05-06 12:15 53.59379 -5.68889 8055 ft 248 kts 129°
2026-05-06 12:16 53.58347 -5.66548 8055 ft 251 kts 127°
2026-05-06 12:16 53.57316 -5.64166 8044 ft 251 kts 131°
2026-05-06 12:16 53.55973 -5.62343 8061 ft 248 kts 152°
2026-05-06 12:16 53.54478 -5.60888 8048 ft 249 kts 151°
2026-05-06 12:17 53.52992 -5.59403 8042 ft 249 kts 150°
2026-05-06 12:17 53.51508 -5.57901 8046 ft 249 kts 150°
2026-05-06 12:17 53.50025 -5.56392 8042 ft 249 kts 150°
2026-05-06 12:17 53.48495 -5.55163 8024 ft 246 kts 168°
2026-05-06 12:18 53.46781 -5.54684 7838 ft 251 kts 173°
2026-05-06 12:18 53.45056 -5.54434 7670 ft 245 kts 190°
2026-05-06 12:18 53.43605 -5.55608 7584 ft 232 kts 226°
2026-05-06 12:18 53.42743 -5.57801 7488 ft 223 kts 248°
2026-05-06 12:19 53.42368 -5.60300 7282 ft 220 kts 262°
2026-05-06 12:19 53.42200 -5.62865 6991 ft 222 kts 263°
2026-05-06 12:19 53.42062 -5.65435 6770 ft 221 kts 264°
2026-05-06 12:19 53.41923 -5.67984 6529 ft 218 kts 263°
2026-05-06 12:20 53.41780 -5.70522 6114 ft 220 kts 263°
2026-05-06 12:20 53.41632 -5.73076 5767 ft 219 kts 263°
2026-05-06 12:20 53.41481 -5.75612 5410 ft 218 kts 263°
2026-05-06 12:20 53.41329 -5.78145 5069 ft 217 kts 262°
2026-05-06 12:21 53.41180 -5.80586 4978 ft 204 kts 262°
2026-05-06 12:21 53.41040 -5.82883 4874 ft 192 kts 262°
2026-05-06 12:21 53.40903 -5.85083 4624 ft 189 kts 262°
2026-05-06 12:21 53.40766 -5.87268 4305 ft 189 kts 262°
2026-05-06 12:22 53.40628 -5.89453 3980 ft 188 kts 263°
2026-05-06 12:22 53.40490 -5.91632 3664 ft 188 kts 263°
2026-05-06 12:22 53.40408 -5.93800 3416 ft 185 kts 270°
2026-05-06 12:22 53.40481 -5.95950 3209 ft 184 kts 274°
2026-05-06 12:23 53.40589 -5.98081 3063 ft 183 kts 275°
2026-05-06 12:23 53.40700 -6.00209 3021 ft 183 kts 275°
2026-05-06 12:23 53.40811 -6.02325 2932 ft 180 kts 275°
2026-05-06 12:23 53.40918 -6.04355 2692 ft 170 kts 275°
2026-05-06 12:24 53.41019 -6.06273 2466 ft 162 kts 275°
2026-05-06 12:24 53.41117 -6.08135 2257 ft 160 kts 275°
2026-05-06 12:24 53.41183 -6.09370 2117 ft 162 kts 275°
2026-05-06 12:24 53.41283 -6.11252 1895 ft 162 kts 275°
2026-05-06 12:25 53.41416 -6.13761 1572 ft 163 kts 275°
2026-05-06 12:25 53.41482 -6.15001 1478 ft 160 kts 276°
2026-05-06 12:25 53.41622 -6.17491 1149 ft 163 kts 276°
2026-05-06 12:25 53.41718 -6.19376 879 ft 162 kts 275°
2026-05-06 12:26 53.41784 -6.20627 771 ft 157 kts 276°
2026-05-06 12:26 53.41916 -6.23045 488 ft 157 kts 276°
2026-05-06 12:26 53.41988 -6.24284 334 ft 157 kts 276°
2026-05-06 12:26 53.42081 -6.26084 210 ft 147 kts 274°
2026-05-06 12:27 53.42153 -6.27368 210 ft 66 kts 275°
2026-05-06 12:27 53.42260 -6.28025 213 ft 36 kts 303°
2026-05-06 12:27 53.42361 -6.28010 210 ft 18 kts 93°
2026-05-06 12:27 53.42344 -6.27809 210 ft 17 kts 94°
2026-05-06 12:28 53.42336 -6.27613 216 ft 17 kts 94°
2026-05-06 12:28 53.42327 -6.27424 210 ft 16 kts 95°
2026-05-06 12:28 53.42317 -6.27243 210 ft 15 kts 95°
2026-05-06 12:28 53.42307 -6.27070 218 ft 15 kts 95°
2026-05-06 12:29 53.42298 -6.26904 210 ft 14 kts 95°
2026-05-06 12:29 53.42290 -6.26744 210 ft 13 kts 95°
2026-05-06 12:29 53.42281 -6.26594 216 ft 13 kts 95°
2026-05-06 12:29 53.42273 -6.26444 216 ft 13 kts 95°
2026-05-06 12:30 53.42265 -6.26281 216 ft 15 kts 95°
2026-05-06 12:30 53.42297 -6.26104 210 ft 17 kts 48°
2026-05-06 12:30 53.42386 -6.25949 210 ft 20 kts 44°
2026-05-06 12:30 53.42487 -6.25777 210 ft 22 kts 45°
2026-05-06 12:31 53.42595 -6.25591 212 ft 23 kts 47°
2026-05-06 12:31 53.42697 -6.25410 216 ft 23 kts 46°
2026-05-06 12:31 53.42792 -6.25247 210 ft 12 kts 46°
2026-05-06 12:31 53.42794 -6.25117 210 ft 11 kts 96°
2026-05-06 12:32 53.42831 -6.25007 210 ft 11 kts 44°
2026-05-06 12:32 53.42887 -6.24922 215 ft 11 kts 45°
2026-05-06 12:32 53.42935 -6.24842 210 ft 9 kts 41°
2026-05-06 12:32 53.42980 -6.24816 211 ft 0 kts
2026-05-06 12:33 53.42994 -6.24814 210 ft 5 kts
2026-05-06 12:33 53.43001 -6.24813 210 ft 0 kts